Weather History for Mandan, ND

Change the Weather History Date:

Wednesday, February 6, 2013

  Actual Average (KBIS) Record (KBIS)
Temperature  
Mean Temperature 29 °F 15 °F  
Max Temperature 39 °F 26 °F 52 °F (1898)
Min Temperature 19 °F 5 °F -39 °F (1936)
Degree Days  
Heating Degree Days 36 50  
Month to date heating degree days 301  
Since 1 July heating degree days 5419  
Cooling Degree Days 0 0  
Month to date cooling degree days 0  
Year to date cooling degree days 0  
Moisture  
Dew Point 25 °F    
Average Humidity 94    
Maximum Humidity 100    
Minimum Humidity 75    
Precipitation  
Precipitation 0.00 in 0.01 in 0.35 in (1881)
Month to date precipitation 0.08  
Year to date precipitation 0.51  
Snow  
Snow 0.00 in 0.20 in 2.50 in (1945)
Month to date snowfall 1.5  
Since 1 July snowfall 30.9  
Snow Depth -    
Sea Level Pressure  
Sea Level Pressure 29.83 in    
Wind  
Wind Speed 10 mph (East)    
Max Wind Speed 18 mph    
Max Gust Speed 16 mph    
Visibility 8 miles    
Events      
T = Trace of Precipitation, MM = Missing Value Source: NWS Daily Summary

Daily Weather History Graph

Daily Weather History Graph

Search for Another Location

Airport:

Trip Planner

Search our weather history database for the weather conditions in past years. The results will help you decide how hot, cold, wet, or windy it might be!

Date:

Astronomy

Feb. 06, 2013 Rise Set
Actual Time 8:00 AM CST 5:55 PM CST
Civil Twilight 7:28 AM CST 6:27 PM CST
Nautical Twilight 6:52 AM CST 7:03 PM CST
Astronomical Twilight 6:17 AM CST 7:38 PM CST
Moon 4:53 AM CST (2/6) 2:08 PM CST (2/6)
Length of Visible Light 10h 58m
Length of Day
9h 54m
Waning Crescent, 17% of the Moon is Illuminated
Feb 6
Waning Crescent
Feb 10
New
Feb 17
First Quarter
Feb 25
Full
Mar 4
Last Quarter

Hourly Weather History & Observations

Time (CST) Temp. Windchill Dew Point Humidity Pressure Visibility Wind Dir Wind Speed Gust Speed Precip Events Conditions
12:15 AM 23.0 °F 12.4 °F 21.2 °F 93% 29.84 in 10.0 mi ESE 10.4 mph - N/A   Overcast
12:35 AM 23.0 °F 13.1 °F 21.2 °F 93% 29.84 in 10.0 mi ESE 9.2 mph - N/A   Mostly Cloudy
12:55 AM 23.0 °F 11.7 °F 23.0 °F 100% 29.83 in 10.0 mi SE 11.5 mph - N/A   Mostly Cloudy
1:15 AM 23.0 °F 12.4 °F 23.0 °F 100% 29.82 in 10.0 mi ESE 10.4 mph - N/A   Overcast
1:35 AM 23.0 °F 11.7 °F 23.0 °F 100% 29.81 in 10.0 mi SE 11.5 mph - N/A   Overcast
1:55 AM 23.0 °F 10.6 °F 23.0 °F 100% 29.80 in 10.0 mi ESE 13.8 mph - N/A   Overcast
2:15 AM 23.0 °F 11.1 °F 23.0 °F 100% 29.79 in 10.0 mi ESE 12.7 mph - N/A   Overcast
2:35 AM 23.0 °F 13.1 °F 23.0 °F 100% 29.80 in 10.0 mi ESE 9.2 mph - N/A   Overcast
2:55 AM 23.0 °F 11.7 °F 23.0 °F 100% 29.79 in 10.0 mi SE 11.5 mph - N/A   Overcast
3:15 AM 24.8 °F 14.6 °F 23.0 °F 93% 29.79 in 10.0 mi SE 10.4 mph - N/A   Overcast
3:35 AM 24.8 °F 16.9 °F 24.8 °F 100% 29.78 in 10.0 mi ESE 6.9 mph - N/A   Overcast
3:55 AM 24.8 °F 14.0 °F 24.8 °F 100% 29.75 in 10.0 mi SSE 11.5 mph - N/A   Overcast
4:15 AM 24.8 °F 12.9 °F 24.8 °F 100% 29.73 in 10.0 mi SSE 13.8 mph - N/A   Overcast
4:35 AM 24.8 °F 16.1 °F 24.8 °F 100% 29.74 in 10.0 mi SE 8.1 mph - N/A   Overcast
4:55 AM 23.0 °F 13.1 °F 23.0 °F 100% 29.74 in 10.0 mi SE 9.2 mph - N/A   Overcast
5:15 AM 23.0 °F 13.9 °F 23.0 °F 100% 29.73 in 10.0 mi SE 8.1 mph - N/A   Overcast
5:35 AM 23.0 °F 17.0 °F 23.0 °F 100% 29.74 in 10.0 mi ESE 4.6 mph - N/A   Mostly Cloudy
5:55 AM 23.0 °F 15.8 °F 23.0 °F 100% 29.74 in 10.0 mi ESE 5.8 mph - N/A   Partly Cloudy
6:15 AM 21.2 °F 11.7 °F 21.2 °F 100% 29.73 in 10.0 mi SE 8.1 mph - N/A   Clear
6:35 AM 21.2 °F 10.1 °F 21.2 °F 100% 29.72 in 10.0 mi SE 10.4 mph - N/A   Clear
6:55 AM 21.2 °F 11.7 °F 21.2 °F 100% 29.72 in 10.0 mi ESE 8.1 mph - N/A   Clear
7:35 AM 21.2 °F 11.7 °F 21.2 °F 100% 29.72 in 9.0 mi SE 8.1 mph - N/A   Clear
7:55 AM 19.4 °F 8.6 °F 19.4 °F 100% 29.71 in 7.0 mi SSE 9.2 mph - N/A   Clear
8:15 AM 19.4 °F 11.5 °F 19.4 °F 100% 29.73 in 5.0 mi ESE 5.8 mph - N/A   Clear
8:35 AM 19.4 °F 12.8 °F 19.4 °F 100% 29.73 in 7.0 mi South 4.6 mph - N/A   Clear
8:55 AM 21.2 °F 10.9 °F 21.2 °F 100% 29.72 in 9.0 mi South 9.2 mph - N/A   Clear
9:15 AM 23.0 °F 13.9 °F 23.0 °F 100% 29.73 in 10.0 mi South 8.1 mph - N/A   Clear
9:35 AM 23.0 °F 13.1 °F 23.0 °F 100% 29.73 in 10.0 mi South 9.2 mph - N/A   Clear
9:55 AM 23.0 °F 14.7 °F 23.0 °F 100% 29.73 in 10.0 mi South 6.9 mph - N/A   Clear
10:15 AM 24.8 °F 14.6 °F 24.8 °F 100% 29.73 in 10.0 mi South 10.4 mph - N/A   Clear
10:35 AM 26.6 °F 17.5 °F 24.8 °F 93% 29.73 in 10.0 mi SW 9.2 mph - N/A   Clear
10:55 AM 26.6 °F 17.5 °F 24.8 °F 93% 29.74 in 10.0 mi SW 9.2 mph - N/A   Clear
11:15 AM 28.4 °F 19.7 °F 26.6 °F 93% 29.74 in 10.0 mi WSW 9.2 mph - N/A   Clear
11:35 AM 32.0 °F 23.6 °F 26.6 °F 80% 29.74 in 10.0 mi West 10.4 mph - N/A   Clear
12:15 PM 33.8 °F 23.9 °F 28.4 °F 81% 29.75 in 10.0 mi West 15.0 mph - N/A   Clear
12:35 PM 35.6 °F 26.2 °F 30.2 °F 81% 29.75 in 10.0 mi West 15.0 mph - N/A   Clear
12:55 PM 37.4 °F 28.9 °F 32.0 °F 81% 29.75 in 10.0 mi West 13.8 mph - N/A   Clear
1:15 PM 37.4 °F 29.3 °F 32.0 °F 81% 29.76 in 10.0 mi WNW 12.7 mph - N/A   Clear
1:35 PM 39.2 °F 33.0 °F 32.0 °F 75% 29.77 in 10.0 mi WNW 9.2 mph - N/A   Clear
1:55 PM 39.2 °F 32.5 °F 32.0 °F 75% 29.78 in 10.0 mi WNW 10.4 mph - N/A   Clear
2:15 PM 39.2 °F 31.6 °F 32.0 °F 75% 29.78 in 10.0 mi West 12.7 mph - N/A   Clear
2:35 PM 39.2 °F 31.6 °F 32.0 °F 75% 29.78 in 10.0 mi WNW 12.7 mph - N/A   Clear
2:55 PM 39.2 °F 31.6 °F 32.0 °F 75% 29.79 in 10.0 mi NW 12.7 mph - N/A   Clear
3:35 PM 39.2 °F 32.0 °F 32.0 °F 75% 29.80 in 10.0 mi NW 11.5 mph 16.1 mph N/A   Clear
3:55 PM 37.4 °F 29.3 °F 32.0 °F 81% 29.81 in 10.0 mi NNW 12.7 mph - N/A   Clear
4:15 PM 35.6 °F 25.9 °F 32.0 °F 87% 29.82 in 10.0 mi NNW 16.1 mph - N/A   Clear
4:35 PM 35.6 °F 26.2 °F 30.2 °F 81% 29.84 in 10.0 mi NNW 15.0 mph - N/A   Clear
4:55 PM 33.8 °F 23.5 °F 30.2 °F 87% 29.85 in 10.0 mi NNW 16.1 mph - N/A   Clear
5:15 PM 32.0 °F 20.5 °F 30.2 °F 93% 29.87 in 10.0 mi North 18.4 mph - N/A   Clear
5:35 PM 30.2 °F 19.3 °F 28.4 °F 93% 29.88 in 10.0 mi NNW 15.0 mph - N/A   Clear
5:55 PM 28.4 °F 18.5 °F 26.6 °F 93% 29.90 in 10.0 mi North 11.5 mph - N/A   Mostly Cloudy
6:15 PM 28.4 °F 17.5 °F 26.6 °F 93% 29.91 in 9.0 mi North 13.8 mph - N/A   Overcast
6:35 PM 28.4 °F 17.0 °F 28.4 °F 100% 29.92 in 9.0 mi NNW 15.0 mph - N/A   Overcast
6:55 PM 28.4 °F 19.7 °F 28.4 °F 100% 29.93 in 9.0 mi North 9.2 mph - N/A   Overcast
7:15 PM 26.6 °F 17.5 °F 26.6 °F 100% 29.94 in 7.0 mi North 9.2 mph - N/A   Overcast
7:35 PM 26.6 °F 15.7 °F 26.6 °F 100% 29.95 in 6.0 mi North 12.7 mph - N/A   Overcast
7:55 PM 26.6 °F 16.8 °F 26.6 °F 100% 29.96 in 7.0 mi North 10.4 mph - N/A   Overcast
8:15 PM 26.6 °F 18.2 °F 26.6 °F 100% 29.97 in 5.0 mi North 8.1 mph - N/A   Overcast
8:35 PM 26.6 °F 16.8 °F 26.6 °F 100% 29.98 in 4.0 mi NE 10.4 mph - N/A   Overcast
8:55 PM 26.6 °F 17.5 °F 26.6 °F 100% 29.99 in 2.0 mi NNE 9.2 mph - N/A   Overcast
9:15 PM 26.6 °F 17.5 °F 26.6 °F 100% 30.00 in 2.0 mi NE 9.2 mph - N/A   Overcast
9:35 PM 26.6 °F 18.2 °F 26.6 °F 100% 30.01 in 1.2 mi NNE 8.1 mph - N/A   Overcast
9:55 PM 24.8 °F 14.6 °F 24.8 °F 100% 30.02 in 2.0 mi NE 10.4 mph - N/A   Overcast
10:15 PM 24.8 °F 14.0 °F 24.8 °F 100% 30.03 in 1.0 mi NE 11.5 mph - N/A   Overcast
10:35 PM 23.0 °F 10.6 °F 23.0 °F 100% 30.03 in 1.5 mi ENE 13.8 mph - N/A   Overcast
10:55 PM 21.2 °F 10.1 °F 21.2 °F 100% 30.03 in 2.5 mi ENE 10.4 mph - N/A   Overcast
11:15 PM 21.2 °F 11.7 °F 21.2 °F 100% 30.04 in 4.0 mi ENE 8.1 mph - N/A   Overcast
11:35 PM 19.4 °F 7.2 °F 19.4 °F 100% 30.05 in 6.0 mi ENE 11.5 mph - N/A   Overcast
11:55 PM 19.4 °F 7.9 °F 19.4 °F 100% 30.05 in 6.0 mi East 10.4 mph - N/A   Overcast